This demonstration page uses our WeatherBlox Daily Observations layout. Learn more.

Left ArrowRight Arrow

34.02893, -84.19858

Hourly Observations for June 15, 2022

Temp ( °F °C ) Dew Point ( °F °C ) Humidity (%) Winds ( mph kmh ) Pressure ( in mb ) Visibility ( mi km ) Precip ( " mm )
12:53 am 00:53 Clear 79 26.1 75 23.9 88 88 SW 5 7 29.99 1016 10 16 0.00 0.00
1:53 am 01:53 Clear 79 26.1 75 23.9 88 88 SW 7 11 29.98 1015 10 16 0.00 0.00
2:53 am 02:53 Clear 78 25.6 74 23.3 87 87 WSW 7 11 29.98 1015 10 16 0.00 0.00
3:53 am 03:53 Clear 77 25 74 23.3 90 90 W 5 7 29.96 1015 10 16 0.00 0.00
4:53 am 04:53 Clear 76 24.4 74 23.3 94 94 W 3 6 29.97 1015 10 16 0.00 0.00
5:53 am 05:53 Clear 77 25 74 23.3 90 90 WNW 3 6 29.98 1015 9 14 0.00 0.00
6:53 am 06:53 Sunny 78 25.6 74 23.3 87 87 NW 8 13 29.99 1016 8 13 0.00 0.00
7:53 am 07:53 Sunny 80 26.7 74 23.3 82 82 WNW 5 7 30.01 1016 8 13 0.00 0.00
8:53 am 08:53 Sunny 83 28.3 74 23.3 74 74 NNW 8 13 30.02 1017 9 14 0.00 0.00
9:53 am 09:53 Sunny 89 31.7 74 23.3 61 61 N 10 17 30.01 1016 10 16 0.00 0.00
10:53 am 10:53 Sunny 91 32.8 73 22.8 56 56 N 13 20 30.02 1017 10 16 0.00 0.00
11:53 am 11:53 Sunny 93 33.9 73 22.8 52 52 NNE 9 15 30.02 1017 10 16 0.00 0.00
12:53 pm 12:53 Sunny 96 35.6 73 22.8 47 47 N 7 11 30.01 1016 10 16 0.00 0.00
1:53 pm 13:53 Mostly Cloudy 97 36.1 74 23.3 48 48 N 9 15 30.01 1016 10 16 0.00 0.00
2:53 pm 14:53 Mostly Cloudy 96 35.6 71 21.7 44 44 undefined N/A 29.99 1016 10 16 0.00 0.00
3:53 pm 15:53 Sunny 97 36.1 72 22.2 45 45 undefined N/A 29.98 1015 10 16 0.00 0.00
4:53 pm 16:53 Partly Cloudy 98 36.7 70 21.1 40 40 Calm 29.98 1015 10 16 0.00 0.00
5:53 pm 17:53 Sunny 98 36.7 68 20 38 38 E 6 9 29.97 1015 10 16 0.00 0.00
6:28 pm 18:28 Sunny with Nearby Thunderstorms 97 36.1 69 20.6 40 40 VRB 3 6 29.95 1014 10 16 0.00 0.00
6:50 pm 18:50 Mostly Sunny 93 34 72 22 49 49 VRB 3 6 29.97 1015 10 16 0.00 0.00
6:53 pm 18:53 Mostly Sunny 94 34.4 71 21.7 48 48 VRB 3 6 29.97 1015 10 16 0.00 0.00
7:53 pm 19:53 Sunny 92 33.3 72 22.2 52 52 undefined N/A 29.98 1015 10 16 0.00 0.00
8:53 pm 20:53 Clear 89 31.7 73 22.8 59 59 Calm 29.99 1016 10 16 0.00 0.00
9:53 pm 21:53 Clear 85 29.4 70 21.1 61 61 SW 12 19 30.03 1017 10 16 0.00 0.00
10:53 pm 22:53 Partly Cloudy 80 26.7 67 19.4 64 64 WSW 5 7 30.07 1018 10 16 0.00 0.00
11:53 pm 23:53 Mostly Cloudy 80 26.7 68 20 67 67 Calm 30.07 1018 10 16 0.00 0.00

Powered by AerisWeather